(252562) = 2001 WM20

Discovered at Socorro on 2001-11-17 by LINEAR.

Orbit

Orbit type: Main Belt

Note: WebGL enabled browser required.

epoch2022-01-21.0
epoch JD2459600.5
perihelion date2019-04-29.22906
perihelion JD2458602.72906
argument of perihelion (°)271.26018
ascending node (°)33.98009
inclination (°)8.41442
eccentricity0.0850347
perihelion distance (AU)2.5680807
Tisserand w.r.t. Jupiter3.3
ΔV w.r.t. Earth (km/sec)10.4
semimajor axis (AU)2.8067519
mean anomaly (°)209.13593
mean daily motion (°/day)0.20960320
aphelion distance (AU)3.045
period (years)4.7
P-vector [x]0.57099176
P-vector [y]-0.68296270
P-vector [z]-0.45555501
Q-vector [x]0.81687179
Q-vector [y]0.52793297
Q-vector [z]0.23239462
absolute magnitude15.9
phase slope0.15
uncertainty0
referenceMPO 696255
observations used427
oppositions14
arc length (days)9264
first opposition used1996
last opposition used2022
residual rms (arc-secs)0.76
perturbers coarse indicatorM-v
perturbers precise indicator003Ek
first observation date used1996-11-19.0
last observation date used2022-04-01.0
computer namePan
JD of orbit computation2456909.334155
perihelion JD uncertainty (days)1.6999E-04
argument of perihelion uncertainty (°)4.6881E-05
ascending node uncertainty (°)2.7677E-05
inclination uncertainty (°)5.6330E-06
eccentricity uncertainty 4.9578E-08
perihelion distance uncertainty (AU)1.5585E-07
Minimum Orbit Intersection Distances (in AU)
for orbit epoch: 2458200.5, reference: MPO401903
Mercury2.11995
Venus1.84111
Earth1.56637
Mars1.15788
Jupiter2.14477
Saturn6.10857
Uranus15.234
Neptune26.9642

Observations

439 total observations over interval: 1996 11 19.11900 – 2022 04 01.286924
These data are available for download (format description).

Date (UT) J2000 RA J2000 Dec Magn Location Ref
1996 11 19.11900 01 36 15.46 +10 32 40.7 20.3 V 691 – Steward Observatory, Kitt Peak-Spacewatch MPS 180843
1996 11 19.14038 01 36 14.65 +10 32 39.9 20.0 V 691 – Steward Observatory, Kitt Peak-Spacewatch MPS 180843
1996 11 19.16164 01 36 13.87 +10 32 39.0 20.0 V 691 – Steward Observatory, Kitt Peak-Spacewatch MPS 180843
2001 11 17.29755 03 46 05.41 +25 12 46.4 19.8   704 – Lincoln Laboratory ETS, New Mexico MPS 44965
2001 11 17.32756 03 46 03.53 +25 12 46.3 20.0   704 – Lincoln Laboratory ETS, New Mexico MPS 44965
2001 11 17.34221 03 46 02.58 +25 12 44.7 19.7   704 – Lincoln Laboratory ETS, New Mexico MPS 44965
2001 11 19.28895 03 44 03.48 +25 11 34.9 19.5   704 – Lincoln Laboratory ETS, New Mexico MPS 44965
2001 11 19.30362 03 44 02.53 +25 11 33.9 20.0   704 – Lincoln Laboratory ETS, New Mexico MPS 44965
2001 11 19.31829 03 44 01.67 +25 11 33.9 20.0   704 – Lincoln Laboratory ETS, New Mexico MPS 44965
2001 11 19.33296 03 44 00.71 +25 11 32.6 19.8   704 – Lincoln Laboratory ETS, New Mexico MPS 44965
2001 11 19.34763 03 43 59.76 +25 11 31.3 19.7   704 – Lincoln Laboratory ETS, New Mexico MPS 44965
2001 11 24.21977 03 39 03.00 +25 07 18.1 19.5   704 – Lincoln Laboratory ETS, New Mexico MPS 49640
2001 11 24.25064 03 39 01.02 +25 07 15.4 20.0   704 – Lincoln Laboratory ETS, New Mexico MPS 49640
2001 11 24.26515 03 39 00.19 +25 07 14.6 19.6   704 – Lincoln Laboratory ETS, New Mexico MPS 49640
2001 11 24.27966 03 38 59.30 +25 07 15.0 20.2   704 – Lincoln Laboratory ETS, New Mexico MPS 49640
2005 08 27.37806 23 40 14.42 -13 28 55.5 19.2   644 – Palomar Mountain/NEAT MPS 180843
2005 08 27.40315 23 40 13.22 -13 29 01.3 19.1   644 – Palomar Mountain/NEAT MPS 180843
2005 08 27.42978 23 40 11.95 -13 29 07.4 19.2   644 – Palomar Mountain/NEAT MPS 180843
2005 09 25.23604 23 15 28.62 -14 45 30.9 19.2 V 703 – Catalina Sky Survey MPS 180843
2005 09 25.24249 23 15 28.15 -14 45 32.9 20.1 V 703 – Catalina Sky Survey MPS 180843
2005 09 25.24891 23 15 27.90 -14 45 31.6 19.9 V 703 – Catalina Sky Survey MPS 180843
2005 09 25.25531 23 15 27.64 -14 45 31.6 19.3 V 703 – Catalina Sky Survey MPS 180843
2005 10 03.24756 23 09 32.32 -14 46 11.9 19.6 V 703 – Catalina Sky Survey MPS 180843
2005 10 03.25399 23 09 31.96 -14 46 11.0 19.8 V 703 – Catalina Sky Survey MPS 180843
2005 10 03.26042 23 09 31.75 -14 46 11.2 19.6 V 703 – Catalina Sky Survey MPS 180843
2005 10 03.26686 23 09 31.42 -14 46 10.6 19.1 V 703 – Catalina Sky Survey MPS 180843
2005 10 10.20036 23 05 23.78 -14 37 46.3 21.0 V 703 – Catalina Sky Survey MPS 180843
2005 10 10.20958 23 05 23.56 -14 37 46.1 20.2 V 703 – Catalina Sky Survey MPS 180843
2005 10 10.21881 23 05 23.24 -14 37 46.0 20.2 V 703 – Catalina Sky Survey MPS 180843
2005 10 10.22804 23 05 22.95 -14 37 43.6 20.2 V 703 – Catalina Sky Survey MPS 180843
2008 02 11.36738 11 38 35.55 +12 50 23.8 20.1 V G96 – Mt. Lemmon Survey MPS 237398
2008 02 11.37233 11 38 35.37 +12 50 24.7 20.3 V G96 – Mt. Lemmon Survey MPS 237398
2008 02 11.37743 11 38 35.19 +12 50 26.1 20.3 V G96 – Mt. Lemmon Survey MPS 237398
2008 02 11.38243 11 38 34.98 +12 50 27.4 20.4 V G96 – Mt. Lemmon Survey MPS 237398
2008 03 03.31851 11 22 49.87 +14 23 33.2 20.0 V 703 – Catalina Sky Survey MPS 240627
2008 03 03.32449 11 22 49.54 +14 23 33.2 19.7 V 703 – Catalina Sky Survey MPS 240627
2008 03 03.33044 11 22 49.18 +14 23 35.4 20.8 V 703 – Catalina Sky Survey MPS 240627
2008 03 03.33641 11 22 48.97 +14 23 38.0 20.0 V 703 – Catalina Sky Survey MPS 240627
2008 03 05.29585 11 21 05.72 +14 31 34.6 20.1 V G96 – Mt. Lemmon Survey MPS 240627
2008 03 05.30102 11 21 05.43 +14 31 35.9 19.9 V G96 – Mt. Lemmon Survey MPS 240627
2008 03 05.30610 11 21 05.14 +14 31 37.3 19.4 V G96 – Mt. Lemmon Survey MPS 240627
2008 03 05.31117 11 21 04.89 +14 31 38.3 19.8 V G96 – Mt. Lemmon Survey MPS 240627
2008 03 11.27569 11 15 47.16 +14 53 46.3 19.5 V 703 – Catalina Sky Survey MPS 241992
2008 03 11.28161 11 15 46.90 +14 53 46.8 20.1 V 703 – Catalina Sky Survey MPS 241992
2008 03 11.28752 11 15 46.44 +14 53 47.9 19.5 V 703 – Catalina Sky Survey MPS 241992
2008 03 11.29341 11 15 46.18 +14 53 48.2 19.7 V 703 – Catalina Sky Survey MPS 241992
2008 03 12.29465 11 14 52.98 +14 57 10.8 19.5 V G96 – Mt. Lemmon Survey MPS 241992
2008 03 12.30156 11 14 52.62 +14 57 11.7 19.4 V G96 – Mt. Lemmon Survey MPS 241992
2008 03 12.31541 11 14 51.86 +14 57 14.1 19.4 V G96 – Mt. Lemmon Survey MPS 241992
2008 04 05.23941 10 56 28.86 +15 35 14.7 20.4 V G96 – Mt. Lemmon Survey MPS 245674
2008 04 05.24610 10 56 28.60 +15 35 14.4 20.3 V G96 – Mt. Lemmon Survey MPS 245674
2008 04 05.25267 10 56 28.35 +15 35 14.6 20.1 V G96 – Mt. Lemmon Survey MPS 245674
2008 04 05.25926 10 56 28.14 +15 35 14.3 20.4 V G96 – Mt. Lemmon Survey MPS 245674
2010 09 09.33581 01 45 34.45 +06 04 27.0 20.2 V 691 – Steward Observatory, Kitt Peak-Spacewatch MPS 347065
2010 09 09.35344 01 45 34.00 +06 04 26.2 20.1 V 691 – Steward Observatory, Kitt Peak-Spacewatch MPS 347065
2010 09 09.37108 01 45 33.57 +06 04 25.4 19.9 V 691 – Steward Observatory, Kitt Peak-Spacewatch MPS 347065
2010 09 17.32463 01 41 34.06 +05 56 11.9 19.9 V 691 – Steward Observatory, Kitt Peak-Spacewatch MPS 347888
2010 09 17.34227 01 41 33.39 +05 56 10.3 20.0 V 691 – Steward Observatory, Kitt Peak-Spacewatch MPS 347888
2010 09 17.35992 01 41 32.72 +05 56 08.8 19.9 V 691 – Steward Observatory, Kitt Peak-Spacewatch MPS 347888
2010 09 28.406188 01 33 46.062 +05 36 44.68 19.50 i F51 – Pan-STARRS 1, Haleakala MPS 365324
2010 09 28.417889 01 33 45.481 +05 36 43.18 19.42 i F51 – Pan-STARRS 1, Haleakala MPS 365324
2010 09 29.98425 01 32 29.16 +05 33 23.4 19.0 V J75 – OAM Observatory, La Sagra MPS 349376
2010 09 29.99618 01 32 28.48 +05 33 22.6 19.3 V J75 – OAM Observatory, La Sagra MPS 349376
2010 09 30.00815 01 32 27.91 +05 33 21.0 19.2 V J75 – OAM Observatory, La Sagra MPS 349376
2010 10 01.91657 01 30 52.21 +05 29 11.0 19.9 V J75 – OAM Observatory, La Sagra MPS 349376
2010 10 01.92947 01 30 51.60 +05 29 10.1 19.1 V J75 – OAM Observatory, La Sagra MPS 349376
2010 10 01.94236 01 30 50.88 +05 29 08.4 19.4 V J75 – OAM Observatory, La Sagra MPS 349376
2010 10 07.22969 01 26 13.01 +05 17 09.7 19.5   704 – Lincoln Laboratory ETS, New Mexico MPS 349376
2010 10 07.24300 01 26 12.19 +05 17 07.2 19.7   704 – Lincoln Laboratory ETS, New Mexico MPS 349376
2010 10 07.25633 01 26 11.49 +05 17 06.2 19.6   704 – Lincoln Laboratory ETS, New Mexico MPS 349376
2010 10 07.26969 01 26 10.80 +05 17 03.7 19.6   704 – Lincoln Laboratory ETS, New Mexico MPS 349376
2010 10 07.28561 01 26 09.87 +05 17 01.5 19.5   704 – Lincoln Laboratory ETS, New Mexico MPS 349376
2010 10 10.31377 01 23 25.03 +05 10 03.3 19.5 V 691 – Steward Observatory, Kitt Peak-Spacewatch MPS 351074
2010 10 10.33142 01 23 24.07 +05 10 00.8 19.2 V 691 – Steward Observatory, Kitt Peak-Spacewatch MPS 351074
2010 10 10.34910 01 23 23.03 +05 09 58.5 19.5 V 691 – Steward Observatory, Kitt Peak-Spacewatch MPS 351074
2010 10 14.32028 01 19 44.54 +05 00 59.8 19.6 V 691 – Steward Observatory, Kitt Peak-Spacewatch MPS 351074
2010 10 14.33797 01 19 43.53 +05 00 57.3 19.7 V 691 – Steward Observatory, Kitt Peak-Spacewatch MPS 351074
2010 10 14.35567 01 19 42.51 +05 00 55.0 19.6 V 691 – Steward Observatory, Kitt Peak-Spacewatch MPS 351074
2010 11 03.13529 01 03 02.01 +04 28 28.4 20.1 V 703 – Catalina Sky Survey MPS 353686
2010 11 03.14036 01 03 01.76 +04 28 27.8 19.7 V 703 – Catalina Sky Survey MPS 353686
2010 11 03.14549 01 03 01.58 +04 28 26.6 20.1 V 703 – Catalina Sky Survey MPS 353686
2010 11 03.15066 01 03 01.40 +04 28 28.6 20.1 V 703 – Catalina Sky Survey MPS 353686
2010 11 05.20358 01 01 36.12 +04 27 00.4 19.7 V G96 – Mt. Lemmon Survey MPS 355217
2010 11 05.21062 01 01 35.83 +04 26 59.9 19.8 V G96 – Mt. Lemmon Survey MPS 355217
2010 11 05.21757 01 01 35.50 +04 26 59.6 19.8 V G96 – Mt. Lemmon Survey MPS 355217
2010 11 05.22451 01 01 35.18 +04 26 59.5 18.9 V G96 – Mt. Lemmon Survey MPS 355217
2010 11 11.312511 00 57 53.713 +04 25 34.58 19.94 r F51 – Pan-STARRS 1, Haleakala MPS 365324
2010 11 11.323951 00 57 53.327 +04 25 34.60 20.07 r F51 – Pan-STARRS 1, Haleakala MPS 365324
2010 12 12.06340 00 52 51.67 +05 29 03.8 20.6 V G96 – Mt. Lemmon Survey MPS 362605
